owner,sensor,date,latitude,longitude,vertical_datum,sea_water_temperature,qcFlag 
TCOON,ioos:station:TCOON:031:1,2009-12-01T00:00:00Z,28.4073,-96.7122,0.0,15.8,2 
TCOON,ioos:station:TCOON:031:1,2009-12-01T01:00:00Z,28.4073,-96.7122,0.0,15.6,2 
TCOON,ioos:station:TCOON:031:1,2009-12-01T03:00:00Z,28.4073,-96.7122,0.0,15.4,2 
TCOON,ioos:station:TCOON:031:1,2009-12-01T04:00:00Z,28.4073,-96.7122,0.0,15.4,2 
TCOON,ioos:station:TCOON:031:1,2009-12-01T05:00:00Z,28.4073,-96.7122,0.0,15.4,2 
TCOON,ioos:station:TCOON:031:1,2009-12-01T06:00:00Z,28.4073,-96.7122,0.0,15.2,2 
TCOON,ioos:station:TCOON:031:1,2009-12-01T07:00:00Z,28.4073,-96.7122,0.0,15.1,11111222 
TCOON,ioos:station:TCOON:031:1,2009-12-01T08:00:00Z,28.4073,-96.7122,0.0,15.0,2 
TCOON,ioos:station:TCOON:031:1,2009-12-01T09:00:00Z,28.4073,-96.7122,0.0,15.0,2 
TCOON,ioos:station:TCOON:031:1,2009-12-01T10:00:00Z,28.4073,-96.7122,0.0,14.9,2 
TCOON,ioos:station:TCOON:031:1,2009-12-01T11:00:00Z,28.4073,-96.7122,0.0,14.9,2 
TCOON,ioos:station:TCOON:031:1,2009-12-01T12:00:00Z,28.4073,-96.7122,0.0,15.0,2 
TCOON,ioos:station:TCOON:031:1,2009-12-01T13:00:00Z,28.4073,-96.7122,0.0,14.9,2 
TCOON,ioos:station:TCOON:031:1,2009-12-01T14:00:00Z,28.4073,-96.7122,0.0,14.6,2 
TCOON,ioos:station:TCOON:031:1,2009-12-01T15:00:00Z,28.4073,-96.7122,0.0,14.5,2 
TCOON,ioos:station:TCOON:031:1,2009-12-01T16:00:00Z,28.4073,-96.7122,0.0,14.6,2 
TCOON,ioos:station:TCOON:031:1,2009-12-01T17:00:00Z,28.4073,-96.7122,0.0,14.6,2 
TCOON,ioos:station:TCOON:031:1,2009-12-01T18:00:00Z,28.4073,-96.7122,0.0,14.5,2 
TCOON,ioos:station:TCOON:031:1,2009-12-01T19:00:00Z,28.4073,-96.7122,0.0,14.5,2 
TCOON,ioos:station:TCOON:031:1,2009-12-01T21:00:00Z,28.4073,-96.7122,0.0,14.7,2 
TCOON,ioos:station:TCOON:031:1,2009-12-01T23:00:00Z,28.4073,-96.7122,0.0,14.6,2 
TCOON,ioos:station:TCOON:031:1,2009-12-02T00:00:00Z,28.4073,-96.7122,0.0,14.0,2 
TCOON,ioos:station:TCOON:031:1,2009-12-02T01:00:00Z,28.4073,-96.7122,0.0,13.3,2 
TCOON,ioos:station:TCOON:031:1,2009-12-02T02:00:00Z,28.4073,-96.7122,0.0,13.6,2 
TCOON,ioos:station:TCOON:031:1,2009-12-02T03:00:00Z,28.4073,-96.7122,0.0,13.8,2 
TCOON,ioos:station:TCOON:031:1,2009-12-02T04:00:00Z,28.4073,-96.7122,0.0,13.7,2 
TCOON,ioos:station:TCOON:031:1,2009-12-02T05:00:00Z,28.4073,-96.7122,0.0,13.7,2 
TCOON,ioos:station:TCOON:031:1,2009-12-02T07:00:00Z,28.4073,-96.7122,0.0,13.6,2 
TCOON,ioos:station:TCOON:031:1,2009-12-02T08:00:00Z,28.4073,-96.7122,0.0,13.5,2 
TCOON,ioos:station:TCOON:031:1,2009-12-02T09:00:00Z,28.4073,-96.7122,0.0,13.4,2 
TCOON,ioos:station:TCOON:031:1,2009-12-02T10:00:00Z,28.4073,-96.7122,0.0,13.1,2 
TCOON,ioos:station:TCOON:031:1,2009-12-02T11:00:00Z,28.4073,-96.7122,0.0,12.9,2 
TCOON,ioos:station:TCOON:031:1,2009-12-02T14:00:00Z,28.4073,-96.7122,0.0,12.6,2 
TCOON,ioos:station:TCOON:031:1,2009-12-02T15:00:00Z,28.4073,-96.7122,0.0,12.0,2 
TCOON,ioos:station:TCOON:031:1,2009-12-02T16:00:00Z,28.4073,-96.7122,0.0,12.0,2 
TCOON,ioos:station:TCOON:031:1,2009-12-02T17:00:00Z,28.4073,-96.7122,0.0,12.1,2 
TCOON,ioos:station:TCOON:031:1,2009-12-02T18:00:00Z,28.4073,-96.7122,0.0,12.4,2 
TCOON,ioos:station:TCOON:031:1,2009-12-02T19:00:00Z,28.4073,-96.7122,0.0,12.8,2 
TCOON,ioos:station:TCOON:031:1,2009-12-02T20:00:00Z,28.4073,-96.7122,0.0,13.2,2 
TCOON,ioos:station:TCOON:031:1,2009-12-02T21:00:00Z,28.4073,-96.7122,0.0,13.3,2 
TCOON,ioos:station:TCOON:031:1,2009-12-02T22:00:00Z,28.4073,-96.7122,0.0,13.4,2 
TCOON,ioos:station:TCOON:031:1,2009-12-02T23:00:00Z,28.4073,-96.7122,0.0,13.4,2 
TCOON,ioos:station:TCOON:031:1,2009-12-03T00:00:00Z,28.4073,-96.7122,0.0,13.1,2 
TCOON,ioos:station:TCOON:031:1,2009-12-03T01:00:00Z,28.4073,-96.7122,0.0,12.8,2 
TCOON,ioos:station:TCOON:031:1,2009-12-03T02:00:00Z,28.4073,-96.7122,0.0,12.6,2 
TCOON,ioos:station:TCOON:031:1,2009-12-03T03:00:00Z,28.4073,-96.7122,0.0,12.4,2 
TCOON,ioos:station:TCOON:031:1,2009-12-03T04:00:00Z,28.4073,-96.7122,0.0,12.3,2 
TCOON,ioos:station:TCOON:031:1,2009-12-03T05:00:00Z,28.4073,-96.7122,0.0,12.2,2 
TCOON,ioos:station:TCOON:031:1,2009-12-03T06:00:00Z,28.4073,-96.7122,0.0,12.1,2 
TCOON,ioos:station:TCOON:031:1,2009-12-03T07:00:00Z,28.4073,-96.7122,0.0,12.2,2 
TCOON,ioos:station:TCOON:031:1,2009-12-03T08:00:00Z,28.4073,-96.7122,0.0,12.4,2 
TCOON,ioos:station:TCOON:031:1,2009-12-03T09:00:00Z,28.4073,-96.7122,0.0,12.6,2 
TCOON,ioos:station:TCOON:031:1,2009-12-03T10:00:00Z,28.4073,-96.7122,0.0,12.6,2 
TCOON,ioos:station:TCOON:031:1,2009-12-03T11:00:00Z,28.4073,-96.7122,0.0,12.4,2 
TCOON,ioos:station:TCOON:031:1,2009-12-03T12:00:00Z,28.4073,-96.7122,0.0,12.2,11111222 
TCOON,ioos:station:TCOON:031:1,2009-12-03T13:00:00Z,28.4073,-96.7122,0.0,12.0,2 
TCOON,ioos:station:TCOON:031:1,2009-12-03T14:00:00Z,28.4073,-96.7122,0.0,11.4,2 
TCOON,ioos:station:TCOON:031:1,2009-12-03T16:00:00Z,28.4073,-96.7122,0.0,11.6,2 
TCOON,ioos:station:TCOON:031:1,2009-12-03T17:00:00Z,28.4073,-96.7122,0.0,12.0,2 
TCOON,ioos:station:TCOON:031:1,2009-12-03T18:00:00Z,28.4073,-96.7122,0.0,12.4,11111222 
TCOON,ioos:station:TCOON:031:1,2009-12-03T19:00:00Z,28.4073,-96.7122,0.0,13.1,2 
TCOON,ioos:station:TCOON:031:1,2009-12-03T20:00:00Z,28.4073,-96.7122,0.0,13.9,11111222 
TCOON,ioos:station:TCOON:031:1,2009-12-03T21:00:00Z,28.4073,-96.7122,0.0,14.2,11111222 
TCOON,ioos:station:TCOON:031:1,2009-12-03T22:00:00Z,28.4073,-96.7122,0.0,14.2,11111222 
TCOON,ioos:station:TCOON:031:1,2009-12-03T23:00:00Z,28.4073,-96.7122,0.0,13.8,11111222 
TCOON,ioos:station:TCOON:031:1,2009-12-04T00:00:00Z,28.4073,-96.7122,0.0,13.6,11111222 
TCOON,ioos:station:TCOON:031:1,2009-12-04T01:00:00Z,28.4073,-96.7122,0.0,13.2,11111222 
TCOON,ioos:station:TCOON:031:1,2009-12-04T15:00:00Z,28.4073,-96.7122,0.0,9.7,11133222 
TCOON,ioos:station:TCOON:031:1,2009-12-05T21:00:00Z,28.4073,-96.7122,0.0,9.8,2 
TCOON,ioos:station:TCOON:031:1,2009-12-05T22:00:00Z,28.4073,-96.7122,0.0,10.1,2 
TCOON,ioos:station:TCOON:031:1,2009-12-05T23:00:00Z,28.4073,-96.7122,0.0,10.6,2 
TCOON,ioos:station:TCOON:031:1,2009-12-06T00:00:00Z,28.4073,-96.7122,0.0,10.5,2 
TCOON,ioos:station:TCOON:031:1,2009-12-06T01:00:00Z,28.4073,-96.7122,0.0,10.0,2 
TCOON,ioos:station:TCOON:031:1,2009-12-06T02:00:00Z,28.4073,-96.7122,0.0,10.3,2 
TCOON,ioos:station:TCOON:031:1,2009-12-06T03:00:00Z,28.4073,-96.7122,0.0,10.5,2 
TCOON,ioos:station:TCOON:031:1,2009-12-06T04:00:00Z,28.4073,-96.7122,0.0,10.5,2 
TCOON,ioos:station:TCOON:031:1,2009-12-06T05:00:00Z,28.4073,-96.7122,0.0,10.4,2 
TCOON,ioos:station:TCOON:031:1,2009-12-06T07:00:00Z,28.4073,-96.7122,0.0,10.5,2 
TCOON,ioos:station:TCOON:031:1,2009-12-06T08:00:00Z,28.4073,-96.7122,0.0,10.6,2 
TCOON,ioos:station:TCOON:031:1,2009-12-06T10:00:00Z,28.4073,-96.7122,0.0,10.7,2 
TCOON,ioos:station:TCOON:031:1,2009-12-06T11:00:00Z,28.4073,-96.7122,0.0,10.7,2 
TCOON,ioos:station:TCOON:031:1,2009-12-06T12:00:00Z,28.4073,-96.7122,0.0,10.7,2 
TCOON,ioos:station:TCOON:031:1,2009-12-06T13:00:00Z,28.4073,-96.7122,0.0,10.5,2 
TCOON,ioos:station:TCOON:031:1,2009-12-06T14:00:00Z,28.4073,-96.7122,0.0,10.5,2 
TCOON,ioos:station:TCOON:031:1,2009-12-06T15:00:00Z,28.4073,-96.7122,0.0,10.6,11111222 
TCOON,ioos:station:TCOON:031:1,2009-12-06T16:00:00Z,28.4073,-96.7122,0.0,10.7,2 
TCOON,ioos:station:TCOON:031:1,2009-12-06T18:00:00Z,28.4073,-96.7122,0.0,10.9,2 
TCOON,ioos:station:TCOON:031:1,2009-12-06T19:00:00Z,28.4073,-96.7122,0.0,10.9,2 
TCOON,ioos:station:TCOON:031:1,2009-12-06T20:00:00Z,28.4073,-96.7122,0.0,10.8,2 
TCOON,ioos:station:TCOON:031:1,2009-12-06T21:00:00Z,28.4073,-96.7122,0.0,10.5,2 
TCOON,ioos:station:TCOON:031:1,2009-12-06T22:00:00Z,28.4073,-96.7122,0.0,10.7,2 
TCOON,ioos:station:TCOON:031:1,2009-12-06T23:00:00Z,28.4073,-96.7122,0.0,10.9,2 
TCOON,ioos:station:TCOON:031:1,2009-12-07T00:00:00Z,28.4073,-96.7122,0.0,11.0,2 
TCOON,ioos:station:TCOON:031:1,2009-12-07T02:00:00Z,28.4073,-96.7122,0.0,11.2,2 
TCOON,ioos:station:TCOON:031:1,2009-12-07T03:00:00Z,28.4073,-96.7122,0.0,11.2,2 
TCOON,ioos:station:TCOON:031:1,2009-12-07T04:00:00Z,28.4073,-96.7122,0.0,11.1,2 
TCOON,ioos:station:TCOON:031:1,2009-12-07T05:00:00Z,28.4073,-96.7122,0.0,11.0,2 
TCOON,ioos:station:TCOON:031:1,2009-12-07T06:00:00Z,28.4073,-96.7122,0.0,11.0,2 
TCOON,ioos:station:TCOON:031:1,2009-12-07T07:00:00Z,28.4073,-96.7122,0.0,11.1,2 
TCOON,ioos:station:TCOON:031:1,2009-12-07T08:00:00Z,28.4073,-96.7122,0.0,11.3,2 
TCOON,ioos:station:TCOON:031:1,2009-12-07T09:00:00Z,28.4073,-96.7122,0.0,11.4,2 
TCOON,ioos:station:TCOON:031:1,2009-12-07T10:00:00Z,28.4073,-96.7122,0.0,11.5,2 
TCOON,ioos:station:TCOON:031:1,2009-12-07T11:00:00Z,28.4073,-96.7122,0.0,11.6,2 
TCOON,ioos:station:TCOON:031:1,2009-12-07T13:00:00Z,28.4073,-96.7122,0.0,11.6,2 
TCOON,ioos:station:TCOON:031:1,2009-12-07T15:00:00Z,28.4073,-96.7122,0.0,11.7,2 
TCOON,ioos:station:TCOON:031:1,2009-12-07T16:00:00Z,28.4073,-96.7122,0.0,11.8,2 
TCOON,ioos:station:TCOON:031:1,2009-12-07T17:00:00Z,28.4073,-96.7122,0.0,11.9,2 
TCOON,ioos:station:TCOON:031:1,2009-12-07T18:00:00Z,28.4073,-96.7122,0.0,11.9,2 
TCOON,ioos:station:TCOON:031:1,2009-12-07T20:00:00Z,28.4073,-96.7122,0.0,11.7,2 
TCOON,ioos:station:TCOON:031:1,2009-12-07T21:00:00Z,28.4073,-96.7122,0.0,11.5,2 
TCOON,ioos:station:TCOON:031:1,2009-12-07T22:00:00Z,28.4073,-96.7122,0.0,11.3,2 
TCOON,ioos:station:TCOON:031:1,2009-12-07T23:00:00Z,28.4073,-96.7122,0.0,11.2,2 
TCOON,ioos:station:TCOON:031:1,2009-12-08T00:00:00Z,28.4073,-96.7122,0.0,11.2,2 
TCOON,ioos:station:TCOON:031:1,2009-12-08T01:00:00Z,28.4073,-96.7122,0.0,11.2,2 
TCOON,ioos:station:TCOON:031:1,2009-12-08T02:00:00Z,28.4073,-96.7122,0.0,11.3,2 
TCOON,ioos:station:TCOON:031:1,2009-12-08T03:00:00Z,28.4073,-96.7122,0.0,11.4,2 
TCOON,ioos:station:TCOON:031:1,2009-12-08T04:00:00Z,28.4073,-96.7122,0.0,11.5,2 
TCOON,ioos:station:TCOON:031:1,2009-12-08T05:00:00Z,28.4073,-96.7122,0.0,11.5,2 
TCOON,ioos:station:TCOON:031:1,2009-12-08T06:00:00Z,28.4073,-96.7122,0.0,11.5,2 
TCOON,ioos:station:TCOON:031:1,2009-12-08T07:00:00Z,28.4073,-96.7122,0.0,11.5,2 
TCOON,ioos:station:TCOON:031:1,2009-12-08T08:00:00Z,28.4073,-96.7122,0.0,11.5,2 
TCOON,ioos:station:TCOON:031:1,2009-12-08T09:00:00Z,28.4073,-96.7122,0.0,11.4,2 
TCOON,ioos:station:TCOON:031:1,2009-12-08T10:00:00Z,28.4073,-96.7122,0.0,11.3,2 
TCOON,ioos:station:TCOON:031:1,2009-12-08T11:00:00Z,28.4073,-96.7122,0.0,11.2,2 
TCOON,ioos:station:TCOON:031:1,2009-12-08T12:00:00Z,28.4073,-96.7122,0.0,11.3,2 
TCOON,ioos:station:TCOON:031:1,2009-12-08T13:00:00Z,28.4073,-96.7122,0.0,11.4,2 
TCOON,ioos:station:TCOON:031:1,2009-12-08T14:00:00Z,28.4073,-96.7122,0.0,11.6,2 
TCOON,ioos:station:TCOON:031:1,2009-12-08T15:00:00Z,28.4073,-96.7122,0.0,11.7,11111222 
TCOON,ioos:station:TCOON:031:1,2009-12-08T16:00:00Z,28.4073,-96.7122,0.0,12.0,2 
TCOON,ioos:station:TCOON:031:1,2009-12-08T18:00:00Z,28.4073,-96.7122,0.0,12.5,2 
TCOON,ioos:station:TCOON:031:1,2009-12-08T19:00:00Z,28.4073,-96.7122,0.0,12.8,2 
TCOON,ioos:station:TCOON:031:1,2009-12-08T20:00:00Z,28.4073,-96.7122,0.0,12.7,2 
TCOON,ioos:station:TCOON:031:1,2009-12-08T21:00:00Z,28.4073,-96.7122,0.0,13.1,2 
TCOON,ioos:station:TCOON:031:1,2009-12-08T22:00:00Z,28.4073,-96.7122,0.0,13.7,2 
TCOON,ioos:station:TCOON:031:1,2009-12-08T23:00:00Z,28.4073,-96.7122,0.0,14.0,2 
TCOON,ioos:station:TCOON:031:1,2009-12-09T00:00:00Z,28.4073,-96.7122,0.0,14.2,2 
TCOON,ioos:station:TCOON:031:1,2009-12-09T01:00:00Z,28.4073,-96.7122,0.0,14.2,2 
TCOON,ioos:station:TCOON:031:1,2009-12-09T02:00:00Z,28.4073,-96.7122,0.0,14.2,2 
TCOON,ioos:station:TCOON:031:1,2009-12-09T03:00:00Z,28.4073,-96.7122,0.0,14.2,2 
TCOON,ioos:station:TCOON:031:1,2009-12-09T04:00:00Z,28.4073,-96.7122,0.0,13.8,2 
TCOON,ioos:station:TCOON:031:1,2009-12-09T05:00:00Z,28.4073,-96.7122,0.0,13.7,2 
TCOON,ioos:station:TCOON:031:1,2009-12-09T06:00:00Z,28.4073,-96.7122,0.0,13.8,2 
TCOON,ioos:station:TCOON:031:1,2009-12-09T07:00:00Z,28.4073,-96.7122,0.0,13.8,2 
TCOON,ioos:station:TCOON:031:1,2009-12-09T08:00:00Z,28.4073,-96.7122,0.0,13.6,2 
TCOON,ioos:station:TCOON:031:1,2009-12-09T09:00:00Z,28.4073,-96.7122,0.0,13.2,2 
TCOON,ioos:station:TCOON:031:1,2009-12-09T10:00:00Z,28.4073,-96.7122,0.0,13.2,2 
TCOON,ioos:station:TCOON:031:1,2009-12-09T11:00:00Z,28.4073,-96.7122,0.0,13.0,2 
TCOON,ioos:station:TCOON:031:1,2009-12-09T12:00:00Z,28.4073,-96.7122,0.0,12.5,2 
TCOON,ioos:station:TCOON:031:1,2009-12-09T13:00:00Z,28.4073,-96.7122,0.0,12.2,2 
TCOON,ioos:station:TCOON:031:1,2009-12-09T14:00:00Z,28.4073,-96.7122,0.0,12.1,2 
TCOON,ioos:station:TCOON:031:1,2009-12-09T15:00:00Z,28.4073,-96.7122,0.0,12.2,2 
TCOON,ioos:station:TCOON:031:1,2009-12-09T16:00:00Z,28.4073,-96.7122,0.0,12.6,2 
TCOON,ioos:station:TCOON:031:1,2009-12-09T17:00:00Z,28.4073,-96.7122,0.0,12.7,2 
TCOON,ioos:station:TCOON:031:1,2009-12-09T18:00:00Z,28.4073,-96.7122,0.0,12.9,2 
TCOON,ioos:station:TCOON:031:1,2009-12-09T19:00:00Z,28.4073,-96.7122,0.0,12.9,2 
TCOON,ioos:station:TCOON:031:1,2009-12-09T20:00:00Z,28.4073,-96.7122,0.0,13.1,2 
TCOON,ioos:station:TCOON:031:1,2009-12-09T21:00:00Z,28.4073,-96.7122,0.0,13.3,2 
TCOON,ioos:station:TCOON:031:1,2009-12-09T22:00:00Z,28.4073,-96.7122,0.0,13.3,2 
TCOON,ioos:station:TCOON:031:1,2009-12-09T23:00:00Z,28.4073,-96.7122,0.0,12.9,2 
TCOON,ioos:station:TCOON:031:1,2009-12-10T00:00:00Z,28.4073,-96.7122,0.0,12.5,2 
TCOON,ioos:station:TCOON:031:1,2009-12-10T01:00:00Z,28.4073,-96.7122,0.0,12.1,2 
TCOON,ioos:station:TCOON:031:1,2009-12-10T02:00:00Z,28.4073,-96.7122,0.0,11.9,2 
TCOON,ioos:station:TCOON:031:1,2009-12-10T03:00:00Z,28.4073,-96.7122,0.0,11.7,2 
TCOON,ioos:station:TCOON:031:1,2009-12-10T04:00:00Z,28.4073,-96.7122,0.0,11.5,2 
TCOON,ioos:station:TCOON:031:1,2009-12-10T05:00:00Z,28.4073,-96.7122,0.0,11.3,2 
TCOON,ioos:station:TCOON:031:1,2009-12-10T06:00:00Z,28.4073,-96.7122,0.0,11.0,2 
TCOON,ioos:station:TCOON:031:1,2009-12-10T07:00:00Z,28.4073,-96.7122,0.0,10.8,2 
TCOON,ioos:station:TCOON:031:1,2009-12-10T08:00:00Z,28.4073,-96.7122,0.0,10.7,2 
TCOON,ioos:station:TCOON:031:1,2009-12-10T09:00:00Z,28.4073,-96.7122,0.0,10.6,2 
TCOON,ioos:station:TCOON:031:1,2009-12-10T10:00:00Z,28.4073,-96.7122,0.0,10.5,2 
TCOON,ioos:station:TCOON:031:1,2009-12-10T11:00:00Z,28.4073,-96.7122,0.0,10.4,2 
TCOON,ioos:station:TCOON:031:1,2009-12-10T12:00:00Z,28.4073,-96.7122,0.0,10.4,2 
TCOON,ioos:station:TCOON:031:1,2009-12-10T13:00:00Z,28.4073,-96.7122,0.0,10.5,2 
TCOON,ioos:station:TCOON:031:1,2009-12-10T14:00:00Z,28.4073,-96.7122,0.0,10.4,2 
TCOON,ioos:station:TCOON:031:1,2009-12-10T15:00:00Z,28.4073,-96.7122,0.0,10.5,2 
TCOON,ioos:station:TCOON:031:1,2009-12-10T16:00:00Z,28.4073,-96.7122,0.0,10.8,2 
TCOON,ioos:station:TCOON:031:1,2009-12-10T17:00:00Z,28.4073,-96.7122,0.0,11.0,2 
TCOON,ioos:station:TCOON:031:1,2009-12-10T18:00:00Z,28.4073,-96.7122,0.0,11.1,2 
TCOON,ioos:station:TCOON:031:1,2009-12-10T19:00:00Z,28.4073,-96.7122,0.0,11.1,2 
TCOON,ioos:station:TCOON:031:1,2009-12-10T20:00:00Z,28.4073,-96.7122,0.0,11.4,2 
TCOON,ioos:station:TCOON:031:1,2009-12-10T21:00:00Z,28.4073,-96.7122,0.0,11.6,2 
TCOON,ioos:station:TCOON:031:1,2009-12-10T22:00:00Z,28.4073,-96.7122,0.0,11.5,2 
TCOON,ioos:station:TCOON:031:1,2009-12-10T23:00:00Z,28.4073,-96.7122,0.0,11.5,2 
TCOON,ioos:station:TCOON:031:1,2009-12-11T00:00:00Z,28.4073,-96.7122,0.0,11.5,2 
TCOON,ioos:station:TCOON:031:1,2009-12-11T01:00:00Z,28.4073,-96.7122,0.0,11.3,2 
TCOON,ioos:station:TCOON:031:1,2009-12-11T02:00:00Z,28.4073,-96.7122,0.0,11.2,2 
TCOON,ioos:station:TCOON:031:1,2009-12-11T03:00:00Z,28.4073,-96.7122,0.0,11.2,2 
TCOON,ioos:station:TCOON:031:1,2009-12-11T04:00:00Z,28.4073,-96.7122,0.0,11.3,2 
TCOON,ioos:station:TCOON:031:1,2009-12-11T05:00:00Z,28.4073,-96.7122,0.0,11.2,2 
TCOON,ioos:station:TCOON:031:1,2009-12-11T06:00:00Z,28.4073,-96.7122,0.0,11.0,2 
TCOON,ioos:station:TCOON:031:1,2009-12-11T07:00:00Z,28.4073,-96.7122,0.0,10.9,2 
TCOON,ioos:station:TCOON:031:1,2009-12-11T08:00:00Z,28.4073,-96.7122,0.0,10.8,2 
TCOON,ioos:station:TCOON:031:1,2009-12-11T09:00:00Z,28.4073,-96.7122,0.0,10.7,2 
TCOON,ioos:station:TCOON:031:1,2009-12-11T10:00:00Z,28.4073,-96.7122,0.0,10.8,2 
TCOON,ioos:station:TCOON:031:1,2009-12-11T11:00:00Z,28.4073,-96.7122,0.0,10.8,2 
TCOON,ioos:station:TCOON:031:1,2009-12-11T13:00:00Z,28.4073,-96.7122,0.0,10.9,2 
TCOON,ioos:station:TCOON:031:1,2009-12-11T14:00:00Z,28.4073,-96.7122,0.0,10.7,2 
TCOON,ioos:station:TCOON:031:1,2009-12-11T15:00:00Z,28.4073,-96.7122,0.0,10.6,2 
TCOON,ioos:station:TCOON:031:1,2009-12-11T16:00:00Z,28.4073,-96.7122,0.0,10.8,2 
TCOON,ioos:station:TCOON:031:1,2009-12-11T17:00:00Z,28.4073,-96.7122,0.0,10.8,11111222 
TCOON,ioos:station:TCOON:031:1,2009-12-11T18:00:00Z,28.4073,-96.7122,0.0,10.8,2 
TCOON,ioos:station:TCOON:031:1,2009-12-11T19:00:00Z,28.4073,-96.7122,0.0,10.8,2 
TCOON,ioos:station:TCOON:031:1,2009-12-11T20:00:00Z,28.4073,-96.7122,0.0,10.9,2 
TCOON,ioos:station:TCOON:031:1,2009-12-11T21:00:00Z,28.4073,-96.7122,0.0,11.1,2 
TCOON,ioos:station:TCOON:031:1,2009-12-11T22:00:00Z,28.4073,-96.7122,0.0,11.1,2 
TCOON,ioos:station:TCOON:031:1,2009-12-11T23:00:00Z,28.4073,-96.7122,0.0,11.1,2 
TCOON,ioos:station:TCOON:031:1,2009-12-12T00:00:00Z,28.4073,-96.7122,0.0,11.0,2 
TCOON,ioos:station:TCOON:031:1,2009-12-12T01:00:00Z,28.4073,-96.7122,0.0,10.9,2 
TCOON,ioos:station:TCOON:031:1,2009-12-12T02:00:00Z,28.4073,-96.7122,0.0,10.8,2 
TCOON,ioos:station:TCOON:031:1,2009-12-12T03:00:00Z,28.4073,-96.7122,0.0,10.8,2 
TCOON,ioos:station:TCOON:031:1,2009-12-12T04:00:00Z,28.4073,-96.7122,0.0,10.8,2 
TCOON,ioos:station:TCOON:031:1,2009-12-12T05:00:00Z,28.4073,-96.7122,0.0,10.9,2 
TCOON,ioos:station:TCOON:031:1,2009-12-12T06:00:00Z,28.4073,-96.7122,0.0,11.0,2 
TCOON,ioos:station:TCOON:031:1,2009-12-12T07:00:00Z,28.4073,-96.7122,0.0,10.9,2 
TCOON,ioos:station:TCOON:031:1,2009-12-12T08:00:00Z,28.4073,-96.7122,0.0,10.7,2 
TCOON,ioos:station:TCOON:031:1,2009-12-12T09:00:00Z,28.4073,-96.7122,0.0,10.6,2 
TCOON,ioos:station:TCOON:031:1,2009-12-12T11:00:00Z,28.4073,-96.7122,0.0,10.7,2 
TCOON,ioos:station:TCOON:031:1,2009-12-12T12:00:00Z,28.4073,-96.7122,0.0,10.7,2 
TCOON,ioos:station:TCOON:031:1,2009-12-12T13:00:00Z,28.4073,-96.7122,0.0,10.7,2 
TCOON,ioos:station:TCOON:031:1,2009-12-12T14:00:00Z,28.4073,-96.7122,0.0,10.7,2 
TCOON,ioos:station:TCOON:031:1,2009-12-12T15:00:00Z,28.4073,-96.7122,0.0,10.7,2 
TCOON,ioos:station:TCOON:031:1,2009-12-12T17:00:00Z,28.4073,-96.7122,0.0,10.6,2 
TCOON,ioos:station:TCOON:031:1,2009-12-12T19:00:00Z,28.4073,-96.7122,0.0,11.0,2 
TCOON,ioos:station:TCOON:031:1,2009-12-12T20:00:00Z,28.4073,-96.7122,0.0,11.2,2 
TCOON,ioos:station:TCOON:031:1,2009-12-12T21:00:00Z,28.4073,-96.7122,0.0,11.3,2 
TCOON,ioos:station:TCOON:031:1,2009-12-12T22:00:00Z,28.4073,-96.7122,0.0,11.3,2 
TCOON,ioos:station:TCOON:031:1,2009-12-12T23:00:00Z,28.4073,-96.7122,0.0,11.4,2 
TCOON,ioos:station:TCOON:031:1,2009-12-13T00:00:00Z,28.4073,-96.7122,0.0,11.4,2 
TCOON,ioos:station:TCOON:031:1,2009-12-13T02:00:00Z,28.4073,-96.7122,0.0,11.4,2 
TCOON,ioos:station:TCOON:031:1,2009-12-13T03:00:00Z,28.4073,-96.7122,0.0,11.4,2 
TCOON,ioos:station:TCOON:031:1,2009-12-13T04:00:00Z,28.4073,-96.7122,0.0,11.5,2 
TCOON,ioos:station:TCOON:031:1,2009-12-13T05:00:00Z,28.4073,-96.7122,0.0,11.4,2 
TCOON,ioos:station:TCOON:031:1,2009-12-13T06:00:00Z,28.4073,-96.7122,0.0,11.4,2 
TCOON,ioos:station:TCOON:031:1,2009-12-13T07:00:00Z,28.4073,-96.7122,0.0,11.4,2 
TCOON,ioos:station:TCOON:031:1,2009-12-13T08:00:00Z,28.4073,-96.7122,0.0,11.4,2 
TCOON,ioos:station:TCOON:031:1,2009-12-13T09:00:00Z,28.4073,-96.7122,0.0,11.4,2 
TCOON,ioos:station:TCOON:031:1,2009-12-13T10:00:00Z,28.4073,-96.7122,0.0,11.4,2 
TCOON,ioos:station:TCOON:031:1,2009-12-13T11:00:00Z,28.4073,-96.7122,0.0,11.4,2 
TCOON,ioos:station:TCOON:031:1,2009-12-13T12:00:00Z,28.4073,-96.7122,0.0,11.4,2 
TCOON,ioos:station:TCOON:031:1,2009-12-13T13:00:00Z,28.4073,-96.7122,0.0,11.4,2 
TCOON,ioos:station:TCOON:031:1,2009-12-13T14:00:00Z,28.4073,-96.7122,0.0,11.3,2 
TCOON,ioos:station:TCOON:031:1,2009-12-13T15:00:00Z,28.4073,-96.7122,0.0,11.3,2 
TCOON,ioos:station:TCOON:031:1,2009-12-13T16:00:00Z,28.4073,-96.7122,0.0,11.3,2 
TCOON,ioos:station:TCOON:031:1,2009-12-13T19:00:00Z,28.4073,-96.7122,0.0,11.4,2 
TCOON,ioos:station:TCOON:031:1,2009-12-13T20:00:00Z,28.4073,-96.7122,0.0,11.5,2 
TCOON,ioos:station:TCOON:031:1,2009-12-13T21:00:00Z,28.4073,-96.7122,0.0,11.6,2 
TCOON,ioos:station:TCOON:031:1,2009-12-13T22:00:00Z,28.4073,-96.7122,0.0,11.7,2 
TCOON,ioos:station:TCOON:031:1,2009-12-13T23:00:00Z,28.4073,-96.7122,0.0,11.8,2 
TCOON,ioos:station:TCOON:031:1,2009-12-14T00:00:00Z,28.4073,-96.7122,0.0,11.9,2 
TCOON,ioos:station:TCOON:031:1,2009-12-14T01:00:00Z,28.4073,-96.7122,0.0,12.0,2 
TCOON,ioos:station:TCOON:031:1,2009-12-14T02:00:00Z,28.4073,-96.7122,0.0,12.0,2 
TCOON,ioos:station:TCOON:031:1,2009-12-14T18:00:00Z,28.4073,-96.7122,0.0,12.0,2 
TCOON,ioos:station:TCOON:031:1,2009-12-14T19:00:00Z,28.4073,-96.7122,0.0,12.2,2 
TCOON,ioos:station:TCOON:031:1,2009-12-14T20:00:00Z,28.4073,-96.7122,0.0,12.4,2 
TCOON,ioos:station:TCOON:031:1,2009-12-14T21:00:00Z,28.4073,-96.7122,0.0,12.8,2 
TCOON,ioos:station:TCOON:031:1,2009-12-14T22:00:00Z,28.4073,-96.7122,0.0,13.4,2 
TCOON,ioos:station:TCOON:031:1,2009-12-14T23:00:00Z,28.4073,-96.7122,0.0,13.7,2 
TCOON,ioos:station:TCOON:031:1,2009-12-15T00:00:00Z,28.4073,-96.7122,0.0,13.9,2 
TCOON,ioos:station:TCOON:031:1,2009-12-15T01:00:00Z,28.4073,-96.7122,0.0,13.8,2 
TCOON,ioos:station:TCOON:031:1,2009-12-15T02:00:00Z,28.4073,-96.7122,0.0,13.8,2 
TCOON,ioos:station:TCOON:031:1,2009-12-15T03:00:00Z,28.4073,-96.7122,0.0,13.9,2 
TCOON,ioos:station:TCOON:031:1,2009-12-15T04:00:00Z,28.4073,-96.7122,0.0,14.0,2 
TCOON,ioos:station:TCOON:031:1,2009-12-15T05:00:00Z,28.4073,-96.7122,0.0,14.1,2 
TCOON,ioos:station:TCOON:031:1,2009-12-15T06:00:00Z,28.4073,-96.7122,0.0,14.1,2 
TCOON,ioos:station:TCOON:031:1,2009-12-15T07:00:00Z,28.4073,-96.7122,0.0,14.0,2 
TCOON,ioos:station:TCOON:031:1,2009-12-15T08:00:00Z,28.4073,-96.7122,0.0,13.9,2 
TCOON,ioos:station:TCOON:031:1,2009-12-15T09:00:00Z,28.4073,-96.7122,0.0,13.7,2 
TCOON,ioos:station:TCOON:031:1,2009-12-15T10:00:00Z,28.4073,-96.7122,0.0,13.5,2 
TCOON,ioos:station:TCOON:031:1,2009-12-15T11:00:00Z,28.4073,-96.7122,0.0,13.2,2 
TCOON,ioos:station:TCOON:031:1,2009-12-15T13:00:00Z,28.4073,-96.7122,0.0,12.5,2 
TCOON,ioos:station:TCOON:031:1,2009-12-15T14:00:00Z,28.4073,-96.7122,0.0,12.5,2 
TCOON,ioos:station:TCOON:031:1,2009-12-15T15:00:00Z,28.4073,-96.7122,0.0,12.8,2 
TCOON,ioos:station:TCOON:031:1,2009-12-15T16:00:00Z,28.4073,-96.7122,0.0,12.9,2 
TCOON,ioos:station:TCOON:031:1,2009-12-15T17:00:00Z,28.4073,-96.7122,0.0,12.7,2 
TCOON,ioos:station:TCOON:031:1,2009-12-15T18:00:00Z,28.4073,-96.7122,0.0,12.6,2 
TCOON,ioos:station:TCOON:031:1,2009-12-15T19:00:00Z,28.4073,-96.7122,0.0,12.7,2 
TCOON,ioos:station:TCOON:031:1,2009-12-15T20:00:00Z,28.4073,-96.7122,0.0,12.8,2 
TCOON,ioos:station:TCOON:031:1,2009-12-15T21:00:00Z,28.4073,-96.7122,0.0,12.9,2 
TCOON,ioos:station:TCOON:031:1,2009-12-15T22:00:00Z,28.4073,-96.7122,0.0,12.8,2 
TCOON,ioos:station:TCOON:031:1,2009-12-15T23:00:00Z,28.4073,-96.7122,0.0,12.6,2 
TCOON,ioos:station:TCOON:031:1,2009-12-16T00:00:00Z,28.4073,-96.7122,0.0,12.4,2 
TCOON,ioos:station:TCOON:031:1,2009-12-16T02:00:00Z,28.4073,-96.7122,0.0,11.9,2 
TCOON,ioos:station:TCOON:031:1,2009-12-16T04:00:00Z,28.4073,-96.7122,0.0,11.5,2 
TCOON,ioos:station:TCOON:031:1,2009-12-16T05:00:00Z,28.4073,-96.7122,0.0,11.4,2 
TCOON,ioos:station:TCOON:031:1,2009-12-16T07:00:00Z,28.4073,-96.7122,0.0,11.4,2 
TCOON,ioos:station:TCOON:031:1,2009-12-16T08:00:00Z,28.4073,-96.7122,0.0,11.4,2 
TCOON,ioos:station:TCOON:031:1,2009-12-16T10:00:00Z,28.4073,-96.7122,0.0,10.9,2 
TCOON,ioos:station:TCOON:031:1,2009-12-16T11:00:00Z,28.4073,-96.7122,0.0,10.8,2 
TCOON,ioos:station:TCOON:031:1,2009-12-16T12:00:00Z,28.4073,-96.7122,0.0,10.8,2 
TCOON,ioos:station:TCOON:031:1,2009-12-16T13:00:00Z,28.4073,-96.7122,0.0,10.8,2 
TCOON,ioos:station:TCOON:031:1,2009-12-16T14:00:00Z,28.4073,-96.7122,0.0,10.6,2 
TCOON,ioos:station:TCOON:031:1,2009-12-16T15:00:00Z,28.4073,-96.7122,0.0,10.4,2 
TCOON,ioos:station:TCOON:031:1,2009-12-16T16:00:00Z,28.4073,-96.7122,0.0,10.3,2 
TCOON,ioos:station:TCOON:031:1,2009-12-16T17:00:00Z,28.4073,-96.7122,0.0,10.4,2 